Location: Kimberly
(42.5380°N, 114.3640°W)
Time: 12:26:37
(UTC-06:00)

Hubble Space Telescope - Visible Passes

Search period start: 19 October 2017 00:00
Search period end: 29 October 2017 00:00
Orbit: 537 x 541 km, 28.5° (Epoch: 19 October)

Date Brightness Start Highest point End Pass type
(mag) Time Alt. Az. Time Alt. Az. Time Alt. Az.
24 Oct 3.5 21:01:33 10° SSW 21:01:36 10° SSW 21:01:36 10° SSW visible
25 Oct 3.4 19:11:32 10° S 19:12:07 10° S 19:12:42 10° SSE visible
25 Oct 3.4 20:51:29 10° SSW 20:52:00 11° SSW 20:52:00 11° SSW visible
